| time (UTC) | temp F | wind direction | speed knots | gust knots | rain 1hr in | rain 24hr in | rain mn in | humidity % | barometer mb |
| 20260507232034 | 50 | 244 | 1.7 | 5.2 | 0.00 | 0.00 | 0.00 | 82 | 1008.4 |
| 20260507231604 | 50 | 256 | 1.7 | 5.2 | 0.00 | 0.00 | 0.00 | 82 | 1008.4 |
| 20260507230014 | 50 | 236 | 1.7 | 8.7 | 0.00 | 0.00 | 0.00 | 82 | 1008.4 |
| 20260507225534 | 50 | 311 | 1.7 | 8.7 | 0.00 | 0.00 | 0.00 | 82 | 1008.4 |
| 20260507225024 | 50 | 262 | 2.6 | 8.7 | 0.00 | 0.00 | 0.00 | 82 | 1008.4 |
| 20260507224522 | 51 | 249 | 2.6 | 10.4 | 0.00 | 0.00 | 0.00 | 82 | 1008.4 |
| 20260507224013 | 51 | 222 | 1.7 | 10.4 | 0.00 | 0.00 | 0.00 | 82 | 1008.5 |
| 20260507223119 | 51 | 265 | 2.6 | 10.4 | 0.00 | 0.00 | 0.00 | 80 | 1008.6 |
| 20260507222518 | 51 | 339 | 1.7 | 6.1 | 0.00 | 0.00 | 0.00 | 81 | 1008.6 |
| 20260507221016 | 51 | 261 | 1.7 | 6.1 | 0.00 | 0.00 | 0.00 | 81 | 1008.5 |
| 20260507220516 | 51 | 225 | 1.7 | 6.1 | 0.00 | 0.00 | 0.00 | 81 | 1008.5 |
| 20260507220132 | 51 | 210 | 1.7 | 11.3 | 0.00 | 0.00 | 0.00 | 80 | 1008.6 |
| 20260507215516 | 51 | 252 | 1.7 | 11.3 | 0.00 | 0.00 | 0.00 | 80 | 1008.6 |
| 20260507215011 | 51 | 216 | 2.6 | 11.3 | 0.00 | 0.00 | 0.00 | 80 | 1008.7 |
| 20260507214513 | 51 | 231 | 2.6 | 7.8 | 0.00 | 0.00 | 0.00 | 79 | 1008.7 |
| 20260507213515 | 51 | 259 | 2.6 | 8.7 | 0.00 | 0.00 | 0.00 | 79 | 1008.8 |
| 20260507213011 | 51 | 237 | 2.6 | 7.8 | 0.00 | 0.00 | 0.00 | 79 | 1008.8 |
| 20260507212519 | 50 | 232 | 1.7 | 6.1 | 0.00 | 0.00 | 0.00 | 80 | 1008.8 |
| 20260507212010 | 50 | 228 | 1.7 | 6.1 | 0.00 | 0.00 | 0.00 | 80 | 1008.8 |
| 20260507211519 | 50 | 219 | 1.7 | 6.1 | 0.00 | 0.00 | 0.00 | 80 | 1008.9 |
| 20260507211009 | 50 | 265 | 0.9 | 5.2 | 0.00 | 0.00 | 0.00 | 80 | 1008.8 |
| 20260507210531 | 50 | 223 | 0.9 | 5.2 | 0.00 | 0.00 | 0.00 | 80 | 1008.8 |
| 20260507210013 | 50 | 276 | 1.7 | 5.2 | 0.00 | 0.00 | 0.00 | 80 | 1008.8 |
| 20260507205511 | 50 | 198 | 0.9 | 6.1 | 0.00 | 0.00 | 0.00 | 79 | 1008.7 |
| 20260507204513 | 50 | 197 | 2.6 | 7.0 | 0.00 | 0.00 | 0.00 | 79 | 1008.5 |
| 20260507203019 | 51 | 182 | 2.6 | 13.0 | 0.00 | 0.00 | 0.00 | 78 | 1008.3 |
| 20260507202525 | 51 | 242 | 3.5 | 13.0 | 0.00 | 0.00 | 0.00 | 77 | 1008.2 |
| 20260507202016 | 51 | 153 | 1.7 | 13.0 | 0.00 | 0.00 | 0.00 | 76 | 1008.2 |
| 20260507201010 | 52 | 235 | 3.5 | 8.7 | 0.00 | 0.00 | 0.00 | 75 | 1008.1 |
| 20260507200512 | 52 | 285 | 1.7 | 10.4 | 0.00 | 0.00 | 0.00 | 73 | 1008.1 |
| 20260507200007 | 53 | 219 | 1.7 | 10.4 | 0.00 | 0.00 | 0.00 | 72 | 1008.1 |
| 20260507195508 | 53 | 253 | 2.6 | 13.0 | 0.00 | 0.00 | 0.00 | 71 | 1008.1 |
| 20260507195009 | 53 | 248 | 1.7 | 13.0 | 0.00 | 0.00 | 0.00 | 70 | 1008.1 |
| 20260507194509 | 54 | 219 | 4.3 | 13.0 | 0.00 | 0.00 | 0.00 | 69 | 1008.1 |
| 20260507194008 | 54 | 242 | 2.6 | 11.3 | 0.00 | 0.00 | 0.00 | 69 | 1008.1 |
| 20260507193509 | 54 | 245 | 4.3 | 13.9 | 0.00 | 0.00 | 0.00 | 68 | 1008.1 |
| 20260507193009 | 54 | 244 | 4.3 | 13.9 | 0.00 | 0.00 | 0.00 | 68 | 1008.0 |
| 20260507192507 | 54 | 254 | 6.1 | 13.9 | 0.00 | 0.00 | 0.00 | 67 | 1008.0 |
| 20260507192009 | 54 | 247 | 4.3 | 13.9 | 0.00 | 0.00 | 0.00 | 65 | 1008.0 |
| 20260507191508 | 55 | 262 | 2.6 | 8.7 | 0.00 | 0.00 | 0.00 | 65 | 1008.0 |
| 20260507191007 | 55 | 275 | 3.5 | 10.4 | 0.00 | 0.00 | 0.00 | 64 | 1007.9 |
| 20260507190506 | 55 | 272 | 4.3 | 11.3 | 0.00 | 0.00 | 0.00 | 63 | 1007.9 |
| 20260507190007 | 56 | 259 | 4.3 | 11.3 | 0.00 | 0.00 | 0.00 | 62 | 1008.0 |
| 20260507185506 | 56 | 252 | 2.6 | 11.3 | 0.00 | 0.00 | 0.00 | 61 | 1007.9 |
| 20260507185007 | 56 | 250 | 4.3 | 17.4 | 0.00 | 0.00 | 0.00 | 61 | 1007.9 |
| 20260507184506 | 56 | 248 | 4.3 | 17.4 | 0.00 | 0.00 | 0.00 | 61 | 1007.8 |
| 20260507184008 | 56 | 244 | 3.5 | 17.4 | 0.00 | 0.00 | 0.00 | 62 | 1007.6 |
| 20260507182509 | 57 | 257 | 2.6 | 10.4 | 0.00 | 0.00 | 0.00 | 60 | 1007.5 |
| 20260507182008 | 57 | 252 | 4.3 | 10.4 | 0.00 | 0.00 | 0.00 | 60 | 1007.4 |
| 20260507181507 | 57 | 273 | 1.7 | 11.3 | 0.00 | 0.00 | 0.00 | 61 | 1007.5 |
| 20260507180507 | 58 | 239 | 6.1 | 17.4 | 0.00 | 0.00 | 0.00 | 58 | 1007.5 |
| 20260507180008 | 58 | 262 | 4.3 | 13.0 | 0.00 | 0.00 | 0.00 | 58 | 1007.5 |
| 20260507175507 | 57 | 259 | 5.2 | 13.0 | 0.00 | 0.02 | 0.00 | 58 | 1007.6 |
| 20260507175008 | 57 | 247 | 5.2 | 15.6 | 0.00 | 0.02 | 0.00 | 57 | 1007.6 |
| 20260507174511 | 57 | 235 | 4.3 | 15.6 | 0.00 | 0.02 | 0.00 | 57 | 1007.6 |
| 20260507173506 | 58 | 260 | 1.7 | 11.3 | 0.00 | 0.02 | 0.00 | 56 | 1007.5 |
| 20260507173008 | 59 | 302 | 4.3 | 11.3 | 0.00 | 0.02 | 0.00 | 56 | 1007.5 |
| 20260507172506 | 59 | 266 | 1.7 | 10.4 | 0.00 | 0.02 | 0.00 | 55 | 1007.6 |
| 20260507172008 | 59 | 230 | 2.6 | 10.4 | 0.00 | 0.02 | 0.00 | 56 | 1007.6 |
| 20260507171506 | 59 | 254 | 3.5 | 12.2 | 0.00 | 0.02 | 0.00 | 55 | 1007.6 |
| 20260507171007 | 59 | 249 | 2.6 | 12.2 | 0.00 | 0.02 | 0.00 | 56 | 1007.6 |
| 20260507170506 | 58 | 254 | 4.3 | 12.2 | 0.00 | 0.02 | 0.00 | 56 | 1007.6 |
| 20260507170006 | 58 | 257 | 3.5 | 10.4 | 0.00 | 0.02 | 0.00 | 56 | 1007.7 |
| 20260507165506 | 58 | 239 | 2.6 | 10.4 | 0.00 | 0.02 | 0.00 | 57 | 1007.7 |
| 20260507165007 | 58 | 253 | 4.3 | 10.4 | 0.00 | 0.05 | 0.00 | 56 | 1007.7 |
| 20260507164506 | 58 | 257 | 2.6 | 11.3 | 0.00 | 0.05 | 0.00 | 55 | 1007.7 |
| 20260507164008 | 58 | 256 | 4.3 | 11.3 | 0.00 | 0.05 | 0.00 | 55 | 1007.7 |
| 20260507163506 | 59 | 256 | 1.7 | 11.3 | 0.00 | 0.05 | 0.00 | 55 | 1007.8 |
| 20260507163007 | 58 | 259 | 5.2 | 13.9 | 0.00 | 0.05 | 0.00 | 54 | 1007.8 |
| 20260507162507 | 59 | 262 | 5.2 | 13.9 | 0.00 | 0.05 | 0.00 | 53 | 1007.8 |
| 20260507161506 | 58 | 265 | 4.3 | 15.6 | 0.00 | 0.05 | 0.00 | 56 | 1007.8 |
| 20260507160506 | 58 | 251 | 6.1 | 10.4 | 0.00 | 0.05 | 0.00 | 55 | 1007.8 |
| 20260507160006 | 58 | 250 | 4.3 | 12.2 | 0.00 | 0.05 | 0.00 | 56 | 1007.8 |
| 20260507155507 | 58 | 261 | 5.2 | 15.6 | 0.00 | 0.05 | 0.00 | 55 | 1007.8 |
| 20260507155006 | 58 | 254 | 5.2 | 15.6 | 0.00 | 0.05 | 0.00 | 55 | 1007.7 |
| 20260507154506 | 58 | 257 | 4.3 | 13.9 | 0.00 | 0.05 | 0.00 | 55 | 1007.8 |
| 20260507154009 | 58 | 266 | 4.3 | 13.0 | 0.00 | 0.05 | 0.00 | 55 | 1007.8 |
| 20260507153506 | 58 | 259 | 7.0 | 13.9 | 0.00 | 0.05 | 0.00 | 54 | 1007.8 |
| 20260507153007 | 58 | 234 | 5.2 | 13.9 | 0.00 | 0.05 | 0.00 | 54 | 1008.0 |
| 20260507152506 | 58 | 265 | 4.3 | 18.2 | 0.00 | 0.05 | 0.00 | 56 | 1007.8 |
| 20260507152007 | 58 | 260 | 6.1 | 18.2 | 0.00 | 0.05 | 0.00 | 54 | 1007.8 |
| 20260507151506 | 59 | 265 | 4.3 | 17.4 | 0.00 | 0.05 | 0.00 | 55 | 1007.9 |
| 20260507150507 | 59 | 260 | 5.2 | 13.0 | 0.00 | 0.05 | 0.00 | 55 | 1007.8 |
| 20260507145506 | 58 | 250 | 5.2 | 10.4 | 0.00 | 0.05 | 0.00 | 56 | 1007.9 |
| 20260507144506 | 58 | 268 | 6.1 | 13.9 | 0.00 | 0.05 | 0.00 | 57 | 1008.0 |
| 20260507144007 | 58 | 184 | 2.6 | 13.9 | 0.00 | 0.05 | 0.00 | 57 | 1008.0 |
| 20260507143506 | 58 | 213 | 7.0 | 13.9 | 0.00 | 0.05 | 0.00 | 56 | 1007.9 |
| 20260507143006 | 58 | 270 | 4.3 | 10.4 | 0.00 | 0.05 | 0.00 | 61 | 1008.0 |
| 20260507142007 | 58 | 193 | 2.6 | 13.0 | 0.00 | 0.05 | 0.00 | 64 | 1008.0 |
| 20260507141506 | 58 | 135 | 2.6 | 15.6 | 0.00 | 0.05 | 0.00 | 63 | 1008.1 |
| 20260507141007 | 58 | 230 | 4.3 | 17.4 | 0.00 | 0.05 | 0.00 | 60 | 1008.2 |
| 20260507140506 | 58 | 233 | 4.3 | 17.4 | 0.00 | 0.05 | 0.00 | 62 | 1008.2 |
| 20260507140011 | 58 | 232 | 4.3 | 17.4 | 0.00 | 0.05 | 0.00 | 62 | 1008.2 |
| 20260507135506 | 59 | 249 | 5.2 | 13.0 | 0.00 | 0.05 | 0.00 | 62 | 1008.2 |
| 20260507135007 | 58 | 257 | 4.3 | 13.0 | 0.00 | 0.05 | 0.00 | 61 | 1008.3 |
| 20260507134506 | 59 | 260 | 4.3 | 13.0 | 0.00 | 0.05 | 0.00 | 63 | 1008.3 |
| 20260507134007 | 57 | 217 | 4.3 | 10.4 | 0.00 | 0.05 | 0.00 | 65 | 1008.4 |
| 20260507133014 | 57 | 143 | 2.6 | 10.4 | 0.00 | 0.05 | 0.00 | 69 | 1008.8 |
| 20260507132506 | 56 | 173 | 2.6 | 8.7 | 0.00 | 0.05 | 0.00 | 73 | 1008.9 |
| 20260507132007 | 54 | 220 | 2.6 | 7.0 | 0.00 | 0.05 | 0.00 | 72 | 1009.0 |
| 20260507131507 | 54 | 263 | 1.7 | 7.8 | 0.00 | 0.05 | 0.00 | 73 | 1009.1 |
| 20260507131007 | 54 | 252 | 1.7 | 10.4 | 0.00 | 0.05 | 0.00 | 74 | 1009.1 |
| 20260507130507 | 54 | 240 | 4.3 | 10.4 | 0.00 | 0.05 | 0.00 | 73 | 1009.1 |
| 20260507130006 | 54 | 255 | 3.5 | 12.2 | 0.00 | 0.05 | 0.00 | 71 | 1009.1 |
| 20260507125509 | 54 | 241 | 4.3 | 12.2 | 0.00 | 0.05 | 0.00 | 70 | 1009.0 |
| 20260507125007 | 55 | 265 | 2.6 | 10.4 | 0.00 | 0.05 | 0.00 | 69 | 1009.0 |
| 20260507124007 | 55 | 271 | 2.6 | 11.3 | 0.00 | 0.05 | 0.00 | 70 | 1009.0 |
| 20260507123507 | 55 | 217 | 1.7 | 8.7 | 0.00 | 0.05 | 0.00 | 70 | 1009.0 |
| 20260507123007 | 55 | 216 | 2.6 | 11.3 | 0.00 | 0.05 | 0.00 | 69 | 1009.0 |
| 20260507122006 | 54 | 237 | 2.6 | 13.0 | 0.00 | 0.07 | 0.00 | 71 | 1009.0 |
| 20260507121006 | 54 | 240 | 2.6 | 7.8 | 0.00 | 0.07 | 0.00 | 72 | 1009.1 |
| 20260507120506 | 54 | 223 | 0.9 | 4.3 | 0.00 | 0.07 | 0.00 | 73 | 1009.1 |
| 20260507120006 | 54 | 239 | 1.7 | 4.3 | 0.00 | 0.07 | 0.00 | 73 | 1009.1 |
| 20260507114506 | 54 | 162 | 1.7 | 10.4 | 0.00 | 0.07 | 0.00 | 73 | 1009.3 |
| 20260507114007 | 54 | 107 | 2.6 | 10.4 | 0.00 | 0.07 | 0.00 | 70 | 1009.3 |
| 20260507113506 | 55 | 178 | 2.6 | 10.4 | 0.00 | 0.07 | 0.00 | 68 | 1009.1 |
| 20260507113007 | 55 | 244 | 1.7 | 10.4 | 0.00 | 0.07 | 0.00 | 69 | 1009.2 |
| 20260507112507 | 55 | 225 | 1.7 | 7.0 | 0.00 | 0.07 | 0.00 | 68 | 1009.1 |
| 20260507112007 | 55 | 159 | 3.5 | 11.3 | 0.00 | 0.07 | 0.00 | 68 | 1009.0 |
| 20260507111507 | 55 | 217 | 4.3 | 11.3 | 0.00 | 0.07 | 0.00 | 68 | 1009.0 |
| 20260507111007 | 54 | 212 | 2.6 | 10.4 | 0.00 | 0.07 | 0.00 | 69 | 1009.1 |
| 20260507110507 | 54 | 164 | 5.2 | 10.4 | 0.00 | 0.07 | 0.00 | 68 | 1009.1 |
| 20260507110008 | 55 | 220 | 4.3 | 8.7 | 0.00 | 0.07 | 0.00 | 67 | 1009.2 |
| 20260507105507 | 55 | 173 | 1.7 | 7.8 | 0.00 | 0.07 | 0.00 | 67 | 1009.1 |
| 20260507104507 | 55 | 229 | 3.5 | 11.3 | 0.00 | 0.07 | 0.00 | 69 | 1009.3 |
| 20260507104007 | 54 | 191 | 2.6 | 11.3 | 0.00 | 0.07 | 0.00 | 68 | 1009.3 |
| 20260507103006 | 54 | 107 | 2.6 | 10.4 | 0.00 | 0.07 | 0.00 | 68 | 1009.3 |
| 20260507102007 | 54 | 249 | 2.6 | 11.3 | 0.00 | 0.07 | 0.00 | 67 | 1009.2 |
| 20260507101507 | 54 | 268 | 2.6 | 12.2 | 0.00 | 0.07 | 0.00 | 68 | 1009.2 |
| 20260507101006 | 54 | 196 | 4.3 | 12.2 | 0.00 | 0.07 | 0.00 | 67 | 1009.1 |
| 20260507100506 | 54 | 185 | 4.3 | 12.2 | 0.00 | 0.07 | 0.00 | 68 | 1009.2 |
| 20260507100005 | 54 | 212 | 4.3 | 11.3 | 0.00 | 0.07 | 0.00 | 69 | 1009.2 |
| 20260507095506 | 53 | 270 | 3.5 | 13.0 | 0.00 | 0.07 | 0.00 | 70 | 1009.2 |
| 20260507095007 | 53 | 246 | 2.6 | 13.9 | 0.00 | 0.07 | 0.00 | 68 | 1009.3 |
| 20260507094006 | 53 | 222 | 3.5 | 10.4 | 0.00 | 0.07 | 0.00 | 69 | 1009.4 |
| 20260507093506 | 53 | 271 | 2.6 | 7.8 | 0.00 | 0.07 | 0.00 | 70 | 1009.5 |
| 20260507093007 | 52 | 238 | 1.7 | 7.8 | 0.00 | 0.07 | 0.00 | 71 | 1009.4 |
| 20260507092007 | 52 | 209 | 2.6 | 7.8 | 0.00 | 0.07 | 0.00 | 70 | 1009.3 |
| 20260507091506 | 52 | 182 | 2.6 | 11.3 | 0.00 | 0.07 | 0.00 | 70 | 1009.4 |
| 20260507091006 | 52 | 222 | 3.5 | 13.9 | 0.00 | 0.07 | 0.00 | 69 | 1009.4 |
| 20260507090507 | 52 | 226 | 2.6 | 13.9 | 0.00 | 0.07 | 0.00 | 70 | 1009.4 |
| 20260507090008 | 52 | 192 | 4.3 | 13.9 | 0.00 | 0.07 | 0.00 | 69 | 1009.4 |
| 20260507085509 | 52 | 297 | 1.7 | 7.8 | 0.00 | 0.07 | 0.00 | 70 | 1009.5 |
| 20260507085006 | 51 | 209 | 2.6 | 8.7 | 0.00 | 0.07 | 0.00 | 71 | 1009.5 |
| 20260507084505 | 51 | 235 | 3.5 | 10.4 | 0.00 | 0.07 | 0.00 | 70 | 1009.6 |
| 20260507084006 | 51 | 246 | 1.7 | 10.4 | 0.00 | 0.07 | 0.00 | 71 | 1009.6 |
| 20260507083507 | 51 | 192 | 4.3 | 10.4 | 0.00 | 0.07 | 0.00 | 70 | 1009.6 |
| 20260507083006 | 51 | 195 | 1.7 | 5.2 | 0.00 | 0.07 | 0.00 | 71 | 1009.6 |
| 20260507082514 | 51 | 215 | 0.0 | 2.6 | 0.00 | 0.07 | 0.00 | 71 | 1009.7 |
| 20260507082006 | 51 | 206 | 0.0 | 2.6 | 0.00 | 0.07 | 0.00 | 71 | 1009.7 |
| 20260507081506 | 50 | 197 | 0.0 | 2.6 | 0.00 | 0.07 | 0.00 | 70 | 1009.6 |
| 20260507081007 | 50 | 185 | 0.9 | 2.6 | 0.00 | 0.07 | 0.00 | 72 | 1009.7 |
| 20260507080506 | 50 | 164 | 0.9 | 5.2 | 0.00 | 0.07 | 0.00 | 71 | 1009.6 |
| 20260507080007 | 50 | 175 | 1.7 | 5.2 | 0.00 | 0.07 | 0.00 | 72 | 1009.7 |
| 20260507075506 | 50 | 146 | 0.0 | 2.6 | 0.00 | 0.07 | 0.00 | 73 | 1009.8 |
| 20260507075006 | 50 | 175 | 0.9 | 5.2 | 0.00 | 0.07 | 0.00 | 72 | 1009.8 |
| 20260507074507 | 49 | 119 | 0.9 | 5.2 | 0.00 | 0.07 | 0.00 | 72 | 1009.9 |
| 20260507074008 | 49 | 183 | 1.7 | 5.2 | 0.00 | 0.07 | 0.00 | 71 | 1009.9 |
| 20260507073506 | 49 | 214 | 1.7 | 4.3 | 0.00 | 0.07 | 0.00 | 72 | 1009.8 |
| 20260507073006 | 49 | 177 | 0.9 | 6.1 | 0.00 | 0.07 | 0.00 | 72 | 1009.9 |
| 20260507072507 | 49 | 201 | 2.6 | 6.1 | 0.00 | 0.07 | 0.00 | 72 | 1009.8 |
| 20260507072006 | 49 | 183 | 0.0 | 2.6 | 0.00 | 0.07 | 0.00 | 72 | 1009.8 |
| 20260507071507 | 49 | 214 | 0.0 | 7.0 | 0.00 | 0.07 | 0.00 | 71 | 1009.8 |
| 20260507071006 | 49 | 200 | 0.9 | 7.0 | 0.00 | 0.07 | 0.00 | 72 | 1009.8 |
| 20260507070010 | 48 | 152 | 0.0 | 4.3 | 0.00 | 0.07 | 0.00 | 73 | 1009.9 |
| 20260507065507 | 48 | 143 | 1.7 | 4.3 | 0.00 | 0.07 | 0.00 | 72 | 1009.8 |
| 20260507065006 | 48 | 144 | 0.9 | 4.3 | 0.00 | 0.07 | 0.00 | 72 | 1009.9 |
| 20260507064507 | 48 | 130 | 0.9 | 2.6 | 0.00 | 0.07 | 0.00 | 74 | 1009.9 |
| 20260507064007 | 48 | 110 | 0.9 | 6.1 | 0.00 | 0.07 | 0.00 | 74 | 1009.9 |
| 20260507063506 | 48 | 148 | 1.7 | 6.1 | 0.00 | 0.07 | 0.00 | 72 | 1009.9 |
| 20260507063007 | 48 | 135 | 0.9 | 2.6 | 0.00 | 0.07 | 0.00 | 74 | 1009.9 |
| 20260507062513 | 48 | 138 | 0.0 | 2.6 | 0.00 | 0.07 | 0.00 | 74 | 1010.0 |
| 20260507062006 | 48 | 143 | 0.0 | 2.6 | 0.00 | 0.07 | 0.00 | 73 | 1010.0 |
| 20260507061506 | 48 | 143 | 0.9 | 2.6 | 0.00 | 0.07 | 0.00 | 72 | 1010.1 |
| 20260507061006 | 48 | 191 | 0.0 | 2.6 | 0.00 | 0.07 | 0.00 | 72 | 1010.2 |
| 20260507055506 | 47 | 159 | 0.9 | 5.2 | 0.00 | 0.07 | 0.00 | 72 | 1010.1 |
| 20260507055006 | 47 | 177 | 0.9 | 5.2 | 0.00 | 0.07 | 0.00 | 72 | 1010.1 |
| 20260507054506 | 47 | 152 | 0.9 | 4.3 | 0.00 | 0.07 | 0.00 | 72 | 1010.1 |
| 20260507054006 | 47 | 180 | 0.9 | 5.2 | 0.00 | 0.07 | 0.00 | 72 | 1010.2 |
| 20260507053507 | 47 | 123 | 0.9 | 5.2 | 0.00 | 0.07 | 0.00 | 72 | 1010.2 |
| 20260507052513 | 47 | 196 | 0.9 | 6.1 | 0.00 | 0.07 | 0.00 | 72 | 1010.1 |
| 20260507051507 | 47 | 199 | 0.9 | 6.1 | 0.00 | 0.07 | 0.00 | 73 | 1010.2 |
| 20260507051006 | 47 | 196 | 1.7 | 6.1 | 0.00 | 0.07 | 0.00 | 74 | 1010.1 |
| 20260507050506 | 47 | 175 | 1.7 | 6.1 | 0.00 | 0.07 | 0.00 | 74 | 1010.2 |
| 20260507050006 | 47 | 126 | 0.9 | 2.6 | 0.00 | 0.07 | 0.00 | 74 | 1010.2 |
| 20260507045506 | 47 | 208 | 0.0 | 2.6 | 0.00 | 0.07 | 0.00 | 75 | 1010.2 |
| 20260507045006 | 47 | 166 | 0.0 | 2.6 | 0.00 | 0.07 | 0.00 | 74 | 1010.2 |
| 20260507044006 | 47 | 178 | 0.0 | 0.0 | 0.00 | 0.07 | 0.00 | 74 | 1010.3 |
| 20260507043506 | 47 | 178 | 0.0 | 1.7 | 0.00 | 0.07 | 0.00 | 73 | 1010.4 |
| 20260507043007 | 47 | 178 | 0.0 | 4.3 | 0.00 | 0.07 | 0.00 | 73 | 1010.4 |
| 20260507042006 | 47 | 219 | 1.7 | 5.2 | 0.00 | 0.07 | 0.00 | 73 | 1010.3 |
| 20260507041506 | 47 | 274 | 0.9 | 4.3 | 0.00 | 0.07 | 0.00 | 73 | 1010.4 |
| 20260507041006 | 47 | 265 | 1.7 | 6.1 | 0.00 | 0.07 | 0.00 | 73 | 1010.4 |
| 20260507040506 | 47 | 250 | 2.6 | 6.1 | 0.00 | 0.07 | 0.00 | 74 | 1010.4 |
| 20260507040006 | 46 | 268 | 0.9 | 7.8 | 0.00 | 0.07 | 0.00 | 75 | 1010.5 |
| 20260507035507 | 46 | 255 | 2.6 | 7.8 | 0.00 | 0.07 | 0.00 | 76 | 1010.5 |
| 20260507035006 | 45 | 243 | 1.7 | 7.8 | 0.00 | 0.07 | 0.00 | 78 | 1010.5 |
| 20260507034506 | 45 | 242 | 0.9 | 4.3 | 0.00 | 0.07 | 0.00 | 79 | 1010.6 |
| 20260507033006 | 45 | 298 | 0.0 | 2.6 | 0.00 | 0.07 | 0.00 | 81 | 1010.7 |
| 20260507032506 | 45 | 289 | 0.0 | 2.6 | 0.00 | 0.07 | 0.00 | 80 | 1010.6 |